Time,TemperatureF,DewpointF,PressureIn,WindDirection,WindDirectionDegrees,WindSpeedMPH,WindSpeedGustMPH,Humidity,HourlyPrecipIn,Conditions,Clouds,dailyrainin,SolarRadiationWatts/m^2,SoftwareType,DateUTC
2013-01-17 00:09:00,66.9,-99.9,30.01,NW,306,0.0,3.0,0,0.00,,,0.00,0,weatherlink.com 1.10,2013-01-17 04:09:00,
2013-01-17 00:24:00,66.8,-99.9,30.01,NW,306,0.0,2.0,0,0.00,,,0.00,0,weatherlink.com 1.10,2013-01-17 04:24:00,
2013-01-17 00:39:00,66.3,-99.9,30.00,NW,306,2.0,3.0,0,0.00,,,0.00,0,weatherlink.com 1.10,2013-01-17 04:39:00,
2013-01-17 00:54:00,66.4,-99.9,30.00,NW,306,0.0,3.0,0,0.00,,,0.00,0,weatherlink.com 1.10,2013-01-17 04:54:00,
2013-01-17 01:09:00,66.4,-99.9,30.00,NW,306,1.0,1.0,0,0.00,,,0.00,0,weatherlink.com 1.10,2013-01-17 05:09:00,
2013-01-17 01:25:00,66.2,-99.9,29.99,NW,306,3.0,3.0,0,0.00,,,0.00,0,weatherlink.com 1.10,2013-01-17 05:25:00,
2013-01-17 01:40:00,66.3,-99.9,29.99,NW,306,0.0,2.0,0,0.00,,,0.00,0,weatherlink.com 1.10,2013-01-17 05:40:00,
2013-01-17 01:55:00,66.5,-99.9,29.98,NW,306,0.0,1.0,0,0.00,,,0.00,0,weatherlink.com 1.10,2013-01-17 05:55:00,
2013-01-17 02:10:00,66.5,-99.9,29.98,NW,306,0.0,0.0,0,0.00,,,0.00,0,weatherlink.com 1.10,2013-01-17 06:10:00,
2013-01-17 02:25:00,66.7,-99.9,29.97,NW,306,1.0,1.0,0,0.00,,,0.00,0,weatherlink.com 1.10,2013-01-17 06:25:00,
2013-01-17 02:40:00,66.7,-99.9,29.97,NW,306,0.0,2.0,0,0.00,,,0.00,0,weatherlink.com 1.10,2013-01-17 06:40:00,
2013-01-17 02:56:00,65.3,-99.9,29.97,SE,128,2.0,7.0,0,0.00,,,0.00,0,weatherlink.com 1.10,2013-01-17 06:56:00,
2013-01-17 03:11:00,66.0,-99.9,29.97,East,94,1.0,7.0,0,0.00,,,0.00,0,weatherlink.com 1.10,2013-01-17 07:11:00,
2013-01-17 03:25:00,66.2,-99.9,29.97,SE,139,0.0,5.0,0,0.00,,,0.00,0,weatherlink.com 1.10,2013-01-17 07:25:00,
2013-01-17 03:40:00,66.2,-99.9,29.97,SE,139,0.0,2.0,0,0.00,,,0.00,0,weatherlink.com 1.10,2013-01-17 07:40:00,
2013-01-17 03:55:00,65.8,-99.9,29.96,SE,139,0.0,2.0,0,0.00,,,0.00,0,weatherlink.com 1.10,2013-01-17 07:55:00,
2013-01-17 04:10:00,65.8,-99.9,29.97,SE,139,2.0,2.0,0,0.00,,,0.00,0,weatherlink.com 1.10,2013-01-17 08:10:00,
2013-01-17 04:25:00,66.0,-99.9,29.97,SE,139,0.0,1.0,0,0.00,,,0.00,0,weatherlink.com 1.10,2013-01-17 08:25:00,
2013-01-17 04:40:00,66.0,-99.9,29.97,SE,139,0.0,1.0,0,0.00,,,0.00,0,weatherlink.com 1.10,2013-01-17 08:40:00,
2013-01-17 04:55:00,65.9,-99.9,29.97,SE,139,0.0,2.0,0,0.00,,,0.00,0,weatherlink.com 1.10,2013-01-17 08:55:00,
2013-01-17 05:11:00,65.7,-99.9,29.97,SE,139,0.0,1.0,0,0.00,,,0.00,0,weatherlink.com 1.10,2013-01-17 09:11:00,
2013-01-17 05:25:00,65.7,-99.9,29.97,SE,139,0.0,2.0,0,0.00,,,0.00,0,weatherlink.com 1.10,2013-01-17 09:25:00,
2013-01-17 05:40:00,65.6,-99.9,29.97,SE,139,0.0,0.0,0,0.00,,,0.00,0,weatherlink.com 1.10,2013-01-17 09:40:00,
2013-01-17 05:56:00,65.9,-99.9,29.99,SE,139,0.0,2.0,0,0.00,,,0.00,0,weatherlink.com 1.10,2013-01-17 09:56:00,
2013-01-17 06:11:00,65.9,-99.9,29.99,ENE,58,0.0,1.0,0,0.00,,,0.00,0,weatherlink.com 1.10,2013-01-17 10:11:00,
2013-01-17 06:26:00,65.8,-99.9,29.99,ENE,58,0.0,2.0,0,0.00,,,0.00,0,weatherlink.com 1.10,2013-01-17 10:26:00,
2013-01-17 06:41:00,65.9,-99.9,30.00,ENE,58,2.0,2.0,0,0.00,,,0.00,0,weatherlink.com 1.10,2013-01-17 10:41:00,
2013-01-17 06:56:00,66.1,-99.9,30.00,NNE,32,0.0,3.0,0,0.00,,,0.00,0,weatherlink.com 1.10,2013-01-17 10:56:00,
2013-01-17 07:26:00,65.6,-99.9,30.01,NE,52,1.0,4.0,0,0.00,,,0.00,19,weatherlink.com 1.10,2013-01-17 11:26:00,
2013-01-17 07:41:00,65.7,-99.9,30.02,West,274,0.0,1.0,0,0.00,,,0.00,40,weatherlink.com 1.10,2013-01-17 11:41:00,
2013-01-17 07:57:00,66.3,-99.9,30.02,West,274,0.0,1.0,0,0.00,,,0.00,51,weatherlink.com 1.10,2013-01-17 11:57:00,
2013-01-17 08:14:00,66.8,-99.9,30.03,NW,305,0.0,2.0,0,0.00,,,0.00,70,weatherlink.com 1.10,2013-01-17 12:14:00,
2013-01-17 08:26:00,68.3,-99.9,30.03,SSW,211,0.0,1.0,0,0.00,,,0.00,156,weatherlink.com 1.10,2013-01-17 12:26:00,
2013-01-17 08:41:00,71.0,-99.9,30.04,ENE,71,2.0,3.0,0,0.00,,,0.00,418,weatherlink.com 1.10,2013-01-17 12:41:00,
2013-01-17 08:56:00,70.3,-99.9,30.05,NE,36,0.0,4.0,0,0.00,,,0.00,355,weatherlink.com 1.10,2013-01-17 12:56:00,
2013-01-17 09:12:00,70.6,-99.9,30.05,East,86,0.0,5.0,0,0.00,,,0.00,411,weatherlink.com 1.10,2013-01-17 13:12:00,
2013-01-17 09:27:00,70.8,-99.9,30.05,East,85,1.0,3.0,0,0.00,,,0.00,257,weatherlink.com 1.10,2013-01-17 13:27:00,
2013-01-17 09:42:00,73.2,-99.9,30.05,South,178,1.0,4.0,0,0.00,,,0.00,510,weatherlink.com 1.10,2013-01-17 13:42:00,
2013-01-17 09:57:00,75.1,-99.9,30.06,East,100,2.0,7.0,0,0.00,,,0.00,552,weatherlink.com 1.10,2013-01-17 13:57:00,
2013-01-17 10:12:00,76.1,-99.9,30.05,NE,51,5.0,6.0,0,0.00,,,0.00,599,weatherlink.com 1.10,2013-01-17 14:12:00,
2013-01-17 10:27:00,76.2,-99.9,30.06,East,94,0.0,5.0,0,0.00,,,0.00,830,weatherlink.com 1.10,2013-01-17 14:27:00,
2013-01-17 10:42:00,77.3,-99.9,30.05,NNE,26,0.0,5.0,0,0.00,,,0.00,348,weatherlink.com 1.10,2013-01-17 14:42:00,
2013-01-17 10:57:00,79.6,34.0,30.04,ENE,57,0.0,4.0,19,0.00,,,0.00,905,weatherlink.com 1.10,2013-01-17 14:57:00,
2013-01-17 11:12:00,80.7,55.0,30.04,NE,56,2.0,9.0,41,0.00,,,0.00,858,weatherlink.com 1.10,2013-01-17 15:12:00,
2013-01-17 11:27:00,79.7,58.0,30.03,ENE,59,0.0,12.0,47,0.00,,,0.00,283,weatherlink.com 1.10,2013-01-17 15:27:00,
2013-01-17 11:42:00,79.6,61.0,30.02,ESE,110,3.0,13.0,54,0.00,,,0.00,441,weatherlink.com 1.10,2013-01-17 15:42:00,
2013-01-17 11:57:00,79.9,61.0,30.01,NE,54,3.0,7.0,53,0.00,,,0.00,367,weatherlink.com 1.10,2013-01-17 15:57:00,
2013-01-17 12:12:00,81.1,60.0,30.00,East,85,0.0,8.0,49,0.00,,,0.00,995,weatherlink.com 1.10,2013-01-17 16:12:00,
2013-01-17 12:28:00,81.9,63.0,30.00,ESE,119,2.0,8.0,53,0.00,,,0.00,932,weatherlink.com 1.10,2013-01-17 16:28:00,
2013-01-17 12:43:00,82.1,63.0,29.99,SE,128,0.0,5.0,53,0.00,,,0.00,248,weatherlink.com 1.10,2013-01-17 16:43:00,
2013-01-17 12:58:00,82.5,64.0,29.98,SSE,153,3.0,7.0,53,0.00,,,0.00,886,weatherlink.com 1.10,2013-01-17 16:58:00,
2013-01-17 13:28:00,80.9,62.0,29.96,ENE,64,4.0,9.0,53,0.00,,,0.00,758,weatherlink.com 1.10,2013-01-17 17:28:00,
2013-01-17 13:43:00,79.9,58.0,29.96,ESE,121,3.0,7.0,48,0.00,,,0.00,155,weatherlink.com 1.10,2013-01-17 17:43:00,
2013-01-17 13:58:00,79.8,61.0,29.95,SSE,152,0.0,9.0,52,0.00,,,0.00,148,weatherlink.com 1.10,2013-01-17 17:58:00,
2013-01-17 14:13:00,81.2,63.0,29.95,SE,139,2.0,8.0,54,0.00,,,0.00,744,weatherlink.com 1.10,2013-01-17 18:13:00,
2013-01-17 14:28:00,82.4,64.0,29.94,ESE,107,0.0,7.0,54,0.00,,,0.00,766,weatherlink.com 1.10,2013-01-17 18:28:00,
2013-01-17 14:43:00,80.4,61.0,29.94,SE,126,1.0,9.0,51,0.00,,,0.00,132,weatherlink.com 1.10,2013-01-17 18:43:00,
2013-01-17 14:58:00,80.9,58.0,29.94,SW,219,2.0,7.0,46,0.00,,,0.00,784,weatherlink.com 1.10,2013-01-17 18:58:00,
2013-01-17 15:13:00,80.5,57.0,29.95,ESE,120,5.0,8.0,44,0.00,,,0.00,650,weatherlink.com 1.10,2013-01-17 19:13:00,
2013-01-17 15:28:00,81.4,59.0,29.95,ESE,120,0.0,6.0,46,0.00,,,0.00,510,weatherlink.com 1.10,2013-01-17 19:28:00,
2013-01-17 15:43:00,80.9,61.0,29.95,East,83,1.0,7.0,51,0.00,,,0.00,526,weatherlink.com 1.10,2013-01-17 19:43:00,
2013-01-17 15:59:00,80.3,61.0,29.95,SSE,147,2.0,7.0,52,0.00,,,0.00,434,weatherlink.com 1.10,2013-01-17 19:59:00,
2013-01-17 16:14:00,80.5,62.0,29.96,ESE,117,8.0,8.0,54,0.00,,,0.00,429,weatherlink.com 1.10,2013-01-17 20:14:00,
2013-01-17 16:29:00,80.2,62.0,29.96,ESE,123,2.0,4.0,54,0.00,,,0.00,357,weatherlink.com 1.10,2013-01-17 20:29:00,
2013-01-17 16:44:00,79.8,62.0,29.97,South,181,3.0,7.0,54,0.00,,,0.00,301,weatherlink.com 1.10,2013-01-17 20:44:00,
2013-01-17 16:59:00,79.5,61.0,29.97,SSE,165,2.0,5.0,54,0.00,,,0.00,236,weatherlink.com 1.10,2013-01-17 20:59:00,
2013-01-17 17:14:00,78.7,56.0,29.97,SSE,155,3.0,8.0,46,0.00,,,0.00,174,weatherlink.com 1.10,2013-01-17 21:14:00,
2013-01-17 17:29:00,77.6,52.0,29.98,South,170,1.0,7.0,41,0.00,,,0.00,35,weatherlink.com 1.10,2013-01-17 21:29:00,
2013-01-17 17:44:00,76.6,51.0,29.98,East,101,0.0,6.0,41,0.00,,,0.00,39,weatherlink.com 1.10,2013-01-17 21:44:00,
2013-01-17 17:59:00,75.7,48.0,29.99,SE,128,1.0,8.0,38,0.00,,,0.00,11,weatherlink.com 1.10,2013-01-17 21:59:00,
2013-01-17 18:14:00,75.2,40.0,29.99,SSE,163,1.0,8.0,28,0.00,,,0.00,0,weatherlink.com 1.10,2013-01-17 22:14:00,
2013-01-17 18:29:00,74.7,30.0,29.99,East,94,0.0,6.0,19,0.00,,,0.00,0,weatherlink.com 1.10,2013-01-17 22:29:00,
2013-01-17 18:44:00,74.3,20.0,30.00,SE,127,1.0,3.0,13,0.00,,,0.00,0,weatherlink.com 1.10,2013-01-17 22:44:00,
2013-01-17 18:59:00,73.9,-6.0,30.00,SE,130,1.0,5.0,4,0.00,,,0.00,0,weatherlink.com 1.10,2013-01-17 22:59:00,
2013-01-17 19:15:00,73.5,-99.9,30.01,SSE,157,1.0,4.0,0,0.00,,,0.00,0,weatherlink.com 1.10,2013-01-17 23:15:00,
2013-01-17 19:30:00,73.2,-99.9,30.02,SSE,157,0.0,2.0,0,0.00,,,0.00,0,weatherlink.com 1.10,2013-01-17 23:30:00,
2013-01-17 19:45:00,72.6,-99.9,30.02,SSE,157,0.0,2.0,0,0.00,,,0.00,0,weatherlink.com 1.10,2013-01-17 23:45:00,
2013-01-17 20:00:00,71.9,-99.9,30.03,SSE,157,0.0,3.0,0,0.00,,,0.00,0,weatherlink.com 1.10,2013-01-18 00:00:00,
2013-01-17 20:15:00,72.0,-99.9,30.03,SSE,157,0.0,0.0,0,0.00,,,0.00,0,weatherlink.com 1.10,2013-01-18 00:15:00,
2013-01-17 20:30:00,72.1,-99.9,30.04,SSE,157,0.0,2.0,0,0.00,,,0.00,0,weatherlink.com 1.10,2013-01-18 00:30:00,
2013-01-17 20:45:00,71.8,-99.9,30.04,SSE,157,0.0,1.0,0,0.00,,,0.00,0,weatherlink.com 1.10,2013-01-18 00:45:00,
2013-01-17 21:00:00,71.0,-99.9,30.04,SSE,157,0.0,2.0,0,0.00,,,0.00,0,weatherlink.com 1.10,2013-01-18 01:00:00,
2013-01-17 21:15:00,70.3,-99.9,30.04,SSE,157,0.0,1.0,0,0.00,,,0.00,0,weatherlink.com 1.10,2013-01-18 01:15:00,
2013-01-17 21:30:00,69.9,-99.9,30.04,SSE,157,0.0,2.0,0,0.00,,,0.00,0,weatherlink.com 1.10,2013-01-18 01:30:00,
2013-01-17 21:45:00,69.6,-99.9,30.04,SSE,157,0.0,1.0,0,0.00,,,0.00,0,weatherlink.com 1.10,2013-01-18 01:45:00,
2013-01-17 22:00:00,68.9,-99.9,30.04,SSE,157,0.0,2.0,0,0.00,,,0.00,0,weatherlink.com 1.10,2013-01-18 02:00:00,
2013-01-17 22:15:00,69.0,-99.9,30.04,SSE,157,0.0,2.0,0,0.00,,,0.00,0,weatherlink.com 1.10,2013-01-18 02:15:00,
2013-01-17 22:31:00,69.0,-99.9,30.03,SSE,157,0.0,3.0,0,0.00,,,0.00,0,weatherlink.com 1.10,2013-01-18 02:31:00,
2013-01-17 22:46:00,69.2,-99.9,30.03,SSE,157,0.0,2.0,0,0.00,,,0.00,0,weatherlink.com 1.10,2013-01-18 02:46:00,
2013-01-17 23:01:00,68.9,-99.9,30.03,SSE,157,0.0,2.0,0,0.00,,,0.00,0,weatherlink.com 1.10,2013-01-18 03:01:00,
2013-01-17 23:16:00,68.5,-99.9,30.03,SSW,198,1.0,4.0,0,0.00,,,0.00,0,weatherlink.com 1.10,2013-01-18 03:16:00,
2013-01-17 23:31:00,68.8,-99.9,30.02,SSW,198,0.0,3.0,0,0.00,,,0.00,0,weatherlink.com 1.10,2013-01-18 03:31:00,
2013-01-17 23:46:00,69.0,-99.9,30.02,SSW,198,0.0,1.0,0,0.00,,,0.00,0,weatherlink.com 1.10,2013-01-18 03:46:00,